Location: City of Moscow
(46.7306°N, 116.9989°W)
Time: 04:36:40
(UTC+00:00)

Orbus 7S? - Pass Details

Date: 16 March 2026
Orbit: 354 x 6170 km, 56.9° (Epoch: 30 September)

Event Time Altitude Azimuth Distance (km) Brightness Sun altitude
Rises 10:01:50 0° 128° (SE) 10,730 9.9 -37.3°
Reaches altitude 10° 10:25:09 10° 95° (E) 8,863 9.8 -34.6°
Maximum altitude 10:26:15 10° 93° (E) 8,778 9.8 -34.4°
Drops below altitude 10° 10:27:20 10° 91° (E) 8,697 9.8 -34.3°
Sets 10:44:04 0° 56° (ENE) 7,930 10.3 -32.1°
